Location: Mahannah Oil Field
(37.4664°N, 96.6003°W)
Time: 23:53:17
(UTC+00:00)

Transit 2A Rocket - Pass Details

Date: 21 January 2021
Orbit: 594 x 908 km, 66.7° (Epoch: 05 March)

Event Time Altitude Azimuth Distance (km) Brightness Sun altitude
Rises 05:08:26 0° 322° (NW) 2,876 - -63.8°
Reaches altitude 10° 05:10:51 10° 314° (NW) 1,947 - -64.2°
Maximum altitude 05:14:46 34° 249° (WSW) 981 - -64.8°
Drops below altitude 10° 05:18:39 10° 184° (S) 1,925 - -65.4°
Sets 05:21:02 0° 175° (S) 2,838 - -65.7°
